Weather in Protochnoye

Russia / Astrakhan Oblast     45°53′28″N   47°17′57″E
temp.,
°C
wind,
m/s
gust,
m/s
humid.,
%
clouds,
%
prec.,
mm/h
press.,
hPa
HPBL,
m
27 july, tue
tue2701:00+27ene51129100 0.0 1017664
04:00+26e71133100 0.0 1017615
07:00+26e71140100 0.0 1018779
10:00+27e693199 0.0 10181033
13:00+28ene71021100 0.0 10171794
16:00+28ene3625100 0.0 1016610
19:00+24nw4535100 0.2 1017156
22:00+24w3436100 0.2 1018104
28 july, wed
wed2801:00+23wnw5640100 0.0 1017200
04:00+24nnw7942100 0.0 1016298
07:00+23nw6846100 0.0 1016253
10:00+27wnw5536100 0.0 1016875
13:00+30wnw3426100 0.0 10152546
16:00+32ene34197 0.0 10143189
19:00+32nne441930 0.0 10133109
22:00+28nne34260 0.0 101453
29 july, thu
thu2901:00+25w610380 0.0 1014204
04:00+23w45450 0.0 101485
07:00+24wnw23410 0.0 1015113
10:00+31n11230 0.0 1014920
13:00+34ene21175 0.0 10133459
16:00+36ene43156 0.0 10113526
19:00+32sse87215 0.0 10121028
22:00+27sse510340 0.0 1013281
30 july, fri
fri3001:00+25ssw35410 0.0 101391
04:00+24ssw34430 0.0 101248
07:00+25ssw23420 0.0 1013126
10:00+31ssw23250 0.0 10131236
13:00+34sse33180 0.0 10122953
16:00+36sse74150 0.0 10103171
19:00+33sse76170 0.0 10101179
22:00+27sse47440 0.0 1011127
31 july, sat
sat3101:00+25sse45530 0.0 101080
04:00+24sse34580 0.0 101049
07:00+26e11510 0.0 101164
10:00+33ene45210 0.0 10101004
13:00+38e66120 0.0 10083172
16:00+38ese98130 0.0 10083130
19:00+33se78270 0.0 1009802
22:00+27se58580 0.0 1010226